Location: Le Hiès Ruisseau
(43.3000°N, 0.4500°W)
Time: 12:54:34
(UTC+00:00)

Cosmos 2369 - Pass Details

Date: 28 January 2023
Orbit: 838 x 856 km, 71.0° (Epoch: 20 March)

Event Time Altitude Azimuth Distance (km) Brightness Sun altitude
Rises 18:18:50 0° 211° (SSW) 3,377 7.5 -13.0°
Reaches altitude 10° 18:21:16 10° 214° (SW) 2,447 6.8 -13.5°
Maximum altitude 18:26:52 67° 297° (WNW) 908 4.0 -14.5°
Drops below altitude 10° 18:32:31 10° 20° (NNE) 2,473 5.8 -15.5°
Enters shadow 18:34:09 - 22° (NNE) 3,091 6.3 -15.8°
